Weather History for Lake Charles Regional, LA

Change the Weather History Date:

Monday, November 25, 2013

  Actual Average Record
Temperature  
Mean Temperature 41 °F 58 °F  
Max Temperature 42 °F 69 °F 87 °F (1913)
Min Temperature 39 °F 48 °F 27 °F (1950)
Degree Days  
Heating Degree Days 24 8  
Month to date heating degree days 147 128  
Since 1 July heating degree days 165 164  
Cooling Degree Days 0 1  
Month to date cooling degree days 40 49  
Year to date cooling degree days 2947 2782  
Moisture  
Dew Point 37 °F    
Average Humidity 79    
Maximum Humidity 100    
Minimum Humidity 57    
Precipitation  
Precipitation 1.95 in 0.14 in 10.00 in (1895)
Month to date precipitation 2.49 3.71  
Year to date precipitation 54.72 52.09  
Snow  
Snow 0.00 in 0.00 in 0.00 in ()
Month to date snowfall 0.0 0.0  
Since 1 July snowfall 0.0 0.0  
Since 1 September snowfall 0.0 0.0  
Snow Depth 0.00 in    
Sea Level Pressure  
Sea Level Pressure 30.10 in    
Wind  
Wind Speed 12 mph (NNE)    
Max Wind Speed 21 mph    
Max Gust Speed 25 mph    
Visibility 6 miles    
Events Rain    
T = Trace of Precipitation, MM = Missing Value Source: NWS Daily Summary

Daily Weather History Graph

Daily Weather History Graph

Search for Another Location

Airport:

Trip Planner

Search our weather history database for the weather conditions in past years. The results will help you decide how hot, cold, wet, or windy it might be!

Date:

Astronomy

Nov. 25, 2013 Rise Set
Actual Time 6:46 AM CST 5:13 PM CST
Civil Twilight 6:20 AM CST 5:38 PM CST
Nautical Twilight 5:51 AM CST 6:08 PM CST
Astronomical Twilight 5:22 AM CST 6:37 PM CST
Moon No Moon Rise 12:20 PM CST (11/25)
Length of Visible Light 11h 17m
Length of Day
10h 26m
Waning Gibbous, 51% of the Moon is Illuminated
Nov 25
Waning Gibbous
Nov 25
Last Quarter
Dec 2
New
Dec 9
First Quarter
Dec 17
Full

Hourly Weather History & Observations

Time (CST) Temp. Windchill Dew Point Humidity Pressure Visibility Wind Dir Wind Speed Gust Speed Precip Events Conditions
12:53 AM 42.1 °F 35.2 °F 30.9 °F 65% 30.31 in 10.0 mi NE 12.7 mph - N/A   Overcast
1:53 AM 42.1 °F 36.1 °F 30.9 °F 65% 30.29 in 10.0 mi NE 10.4 mph - N/A   Overcast
2:53 AM 41.0 °F 33.9 °F 30.9 °F 67% 30.26 in 10.0 mi NE 12.7 mph - N/A   Overcast
3:53 AM 42.1 °F 35.2 °F 30.9 °F 65% 30.25 in 10.0 mi ENE 12.7 mph - N/A   Overcast
4:39 AM 42.8 °F 37.0 °F 30.2 °F 61% 30.22 in 10.0 mi NE 10.4 mph - N/A   Overcast
4:53 AM 42.1 °F 35.7 °F 30.0 °F 62% 30.25 in 10.0 mi NE 11.5 mph - N/A   Overcast
5:53 AM 42.1 °F 36.1 °F 30.0 °F 62% 30.23 in 10.0 mi NNE 10.4 mph - N/A   Overcast
6:53 AM 41.0 °F 34.7 °F 32.0 °F 70% 30.22 in 10.0 mi NNE 10.4 mph - N/A   Overcast
7:53 AM 41.0 °F 34.7 °F 33.1 °F 73% 30.22 in 10.0 mi NNE 10.4 mph - N/A   Overcast
8:53 AM 41.0 °F 33.1 °F 33.1 °F 73% 30.21 in 10.0 mi NE 15.0 mph - N/A   Overcast
9:24 AM 41.0 °F 32.8 °F 33.8 °F 76% 30.18 in 10.0 mi NE 16.1 mph - N/A   Overcast
9:53 AM 39.9 °F 31.4 °F 36.0 °F 86% 30.19 in 7.0 mi NE 16.1 mph - 0.00 in Rain Rain
10:23 AM 39.2 °F 33.0 °F 37.4 °F 93% 30.17 in 6.0 mi NNE 9.2 mph - 0.05 in Rain Light Rain
10:53 AM 39.0 °F 31.8 °F 37.0 °F 93% 30.19 in 2.5 mi NNE 11.5 mph - 0.12 in Rain Heavy Rain
11:00 AM 39.2 °F 32.5 °F 37.4 °F 93% 30.16 in 3.0 mi North 10.4 mph - 0.04 in Rain Heavy Rain
11:53 AM 39.9 °F 31.8 °F 37.9 °F 93% 30.14 in 10.0 mi NNE 15.0 mph - 0.20 in Rain Light Rain
12:53 PM 39.0 °F 29.9 °F 37.0 °F 93% 30.09 in 4.0 mi NNE 17.3 mph 25.3 mph 0.05 in Rain Light Rain
1:00 PM 39.2 °F 30.2 °F 37.4 °F 93% 30.06 in 1.5 mi NNE 17.3 mph - 0.02 in Rain Heavy Rain
1:16 PM 39.2 °F 31.2 °F 37.4 °F 93% 30.05 in 2.5 mi NNE 13.8 mph - 0.07 in Rain Heavy Rain
1:26 PM 39.2 °F 32.0 °F 37.4 °F 93% 30.06 in 4.0 mi NNE 11.5 mph - 0.10 in Rain Rain
1:42 PM 39.2 °F 32.0 °F 37.4 °F 93% 30.09 in 2.0 mi NNW 11.5 mph - 0.16 in Rain Heavy Rain
1:53 PM 39.0 °F 33.4 °F 37.0 °F 93% 30.10 in 2.5 mi North 8.1 mph - 0.19 in Rain Heavy Rain
2:05 PM 39.2 °F 33.0 °F 37.4 °F 93% 30.07 in 4.0 mi North 9.2 mph - 0.04 in Rain Rain
2:21 PM 39.2 °F 31.6 °F 37.4 °F 93% 30.06 in 2.5 mi NNE 12.7 mph - 0.05 in Rain Light Rain
2:53 PM 39.0 °F 34.0 °F 37.9 °F 96% 30.08 in 2.5 mi North 6.9 mph - 0.10 in Rain Rain
2:56 PM 39.2 °F 35.0 °F 37.4 °F 93% 30.06 in 7.0 mi North 5.8 mph - 0.00 in Rain Rain
3:17 PM 39.2 °F 34.2 °F 39.2 °F 100% 30.06 in 2.0 mi NE 6.9 mph - 0.07 in Rain Heavy Rain
3:29 PM 39.2 °F 33.0 °F 39.2 °F 100% 30.04 in 7.0 mi NNE 9.2 mph - 0.10 in Rain Light Rain
3:41 PM 39.2 °F 32.5 °F 39.2 °F 100% 30.03 in 1.8 mi NE 10.4 mph - 0.15 in Rain Heavy Rain
3:48 PM 39.2 °F 33.6 °F 39.2 °F 100% 30.03 in 2.0 mi North 8.1 mph - 0.19 in Rain Rain
3:53 PM 39.9 °F 33.4 °F 39.0 °F 97% 30.05 in 2.0 mi NNE 10.4 mph - 0.22 in Rain Heavy Rain
3:55 PM 39.2 °F 32.0 °F 39.2 °F 100% 30.01 in 1.8 mi NNE 11.5 mph - 0.01 in Rain Heavy Rain
4:02 PM 39.2 °F 33.0 °F 39.2 °F 100% 30.02 in 1.5 mi NE 9.2 mph - 0.08 in Rain Heavy Rain
4:10 PM 39.2 °F 31.6 °F 39.2 °F 100% 30.01 in 3.0 mi NNE 12.7 mph - 0.12 in Rain Heavy Rain
4:53 PM 39.9 °F 31.8 °F 39.0 °F 97% 30.00 in 10.0 mi NNE 15.0 mph - 0.20 in   Overcast
5:53 PM 41.0 °F 33.9 °F 39.0 °F 93% 30.01 in 10.0 mi NE 12.7 mph - 0.00 in   Overcast
6:53 PM 41.0 °F 35.2 °F 39.9 °F 96% 30.05 in 5.0 mi NNW 9.2 mph 18.4 mph 0.01 in Rain Light Rain
7:53 PM 42.1 °F 34.9 °F 39.9 °F 92% 30.01 in 8.0 mi NNE 13.8 mph - 0.08 in Rain Light Rain
8:53 PM 41.0 °F 34.3 °F 39.0 °F 93% 30.05 in 5.0 mi NNE 11.5 mph - 0.05 in Rain Light Rain
8:56 PM 41.0 °F 34.3 °F 39.2 °F 93% 30.02 in 4.0 mi NNE 11.5 mph - 0.01 in Rain Heavy Rain
8:58 PM 41.0 °F 35.8 °F 39.2 °F 93% 30.02 in 2.5 mi NNE 8.1 mph - 0.02 in Rain Heavy Rain
9:02 PM 41.0 °F 33.9 °F 39.2 °F 93% 30.00 in 2.0 mi NE 12.7 mph - 0.09 in Rain Heavy Rain
9:23 PM 41.0 °F 35.2 °F 39.2 °F 93% 29.99 in 3.0 mi NE 9.2 mph - 0.23 in Rain Heavy Rain
9:53 PM 41.0 °F 33.9 °F 39.9 °F 96% 30.01 in 7.0 mi NNE 12.7 mph - 0.40 in Rain Light Rain
10:41 PM 41.0 °F 34.7 °F 39.2 °F 93% 29.99 in 2.5 mi North 10.4 mph - 0.20 in Rain Heavy Rain
10:50 PM 41.0 °F 33.5 °F 39.2 °F 93% 29.96 in 4.0 mi North 13.8 mph - 0.24 in Rain Heavy Rain
10:53 PM 41.0 °F 32.5 °F 39.9 °F 96% 29.98 in 4.0 mi North 17.3 mph 21.9 mph 0.26 in Rain Heavy Rain
11:42 PM 41.0 °F 33.9 °F 39.2 °F 93% 29.96 in 10.0 mi NE 12.7 mph - 0.06 in Rain Light Rain
11:53 PM 41.0 °F 36.4 °F 39.9 °F 96% 29.98 in 10.0 mi Variable 6.9 mph - 0.07 in Rain Light Rain